Location: Huberhof
(49.2050°N, 7.4980°E)
Time: 03:28:15
(UTC+00:00)

Cosmos 1340 - Pass Details

Date: 29 October 2020
Orbit: 501 x 504 km, 81.2° (Epoch: 25 November)

Event Time Altitude Azimuth Distance (km) Brightness Sun altitude
Rises 17:20:05 0° 348° (NNW) 2,618 6.3 -11.4°
Reaches altitude 10° 17:22:13 10° 348° (NNW) 1,729 5.4 -11.8°
Maximum altitude 17:26:01 90° 308° (NW) 512 2.6 -12.4°
Drops below altitude 10° 17:29:48 10° 170° (S) 1,714 5.3 -13.0°
Sets 17:31:54 0° 170° (S) 2,594 6.2 -13.3°
